Radiation Dose measured at exhaust stack monitor of Fukushima Daiichi Nuclear Power Station
Date,Time,Unit 5 6 shared exhaust cylinders,Wind Direction,Wind Velocity(m/s)
2024/07/12,00:00,3.4,south-southwest,2.6
2024/07/12,00:10,3.6,west-southwest,0.6
2024/07/12,00:20,3.5,south-southwest,2.0
2024/07/12,00:30,3.7,south-southwest,1.5
2024/07/12,00:40,3.5,south-southwest,1.7
2024/07/12,00:50,3.7,south-southwest,2.0
2024/07/12,01:00,3.6,south-southwest,2.5
2024/07/12,01:10,3.7,west-southwest,1.7
2024/07/12,01:20,3.5,west-northwest,0.9
2024/07/12,01:30,3.6,west-northwest,1.4
2024/07/12,01:40,3.7,west-northwest,0.8
2024/07/12,01:50,3.6,northwest,1.5
2024/07/12,02:00,3.6,north,2.0
2024/07/12,02:10,3.5,north,1.1
2024/07/12,02:20,3.6,northwest,1.7
2024/07/12,02:30,3.7,northwest,2.3
2024/07/12,02:40,3.6,northwest,2.8
2024/07/12,02:50,3.7,northwest,3.3
2024/07/12,03:00,3.5,northwest,2.6
2024/07/12,03:10,3.5,north-northwest,2.9
2024/07/12,03:20,3.6,north-northwest,2.8
2024/07/12,03:30,3.5,north-northwest,2.3
2024/07/12,03:40,3.5,north-northwest,2.3
2024/07/12,03:50,3.7,north-northwest,2.2
2024/07/12,04:00,3.6,north-northwest,2.5
2024/07/12,04:10,3.5,north-northwest,2.3
2024/07/12,04:20,3.5,north-northwest,2.3
2024/07/12,04:30,3.6,north-northwest,2.0
2024/07/12,04:40,3.6,north-northwest,2.8
2024/07/12,04:50,3.6,north-northwest,3.4
2024/07/12,05:00,3.8,north-northwest,3.3
2024/07/12,05:10,3.6,north-northwest,3.1
2024/07/12,05:20,3.8,north-northwest,3.7
2024/07/12,05:30,3.6,north-northwest,3.3
2024/07/12,05:40,3.7,north-northwest,2.6
2024/07/12,05:50,3.6,north-northwest,2.9
2024/07/12,06:00,3.7,north-northwest,3.1
2024/07/12,06:10,3.4,north-northwest,2.8
2024/07/12,06:20,3.8,north,2.8
2024/07/12,06:30,3.7,north-northwest,2.6
2024/07/12,06:40,3.5,north-northwest,3.1
2024/07/12,06:50,3.5,north,3.0
2024/07/12,07:00,3.7,north-northeast,2.8
2024/07/12,07:10,3.6,north,2.0
2024/07/12,07:20,3.4,east-northeast,2.3
2024/07/12,07:30,3.7,north-northwest,1.7
2024/07/12,07:40,3.6,north-northwest,1.2
2024/07/12,07:50,3.8,northwest,0.6
2024/07/12,08:00,3.6,-,CALM
2024/07/12,08:10,3.6,southeast,1.7
2024/07/12,08:20,3.6,-,CALM
2024/07/12,08:30,3.5,east-southeast,4.3
2024/07/12,08:40,3.5,-,CALM
2024/07/12,08:50,3.7,southeast,8.4
2024/07/12,09:00,3.6,-,CALM
2024/07/12,09:10,3.6,south-southeast,1.4
2024/07/12,09:20,3.8,east-southeast,4.6
2024/07/12,09:30,3.6,southeast,2.5
2024/07/12,09:40,3.6,southeast,0.9
2024/07/12,09:50,3.7,south-southwest,0.9
2024/07/12,10:00,3.6,southwest,1.1
2024/07/12,10:10,3.7,-,CALM
2024/07/12,10:20,3.6,west,1.1
2024/07/12,10:30,3.6,north-northwest,1.2
2024/07/12,10:40,3.6,-,CALM
2024/07/12,10:50,3.7,east-southeast,0.9
2024/07/12,11:00,3.6,east-southeast,1.4
2024/07/12,11:10,3.6,east,1.2
2024/07/12,11:20,3.6,east,1.1
2024/07/12,11:30,3.6,east,1.2
2024/07/12,11:40,3.7,east-southeast,1.2
2024/07/12,11:50,3.7,east-southeast,1.4
2024/07/12,12:00,3.6,south-southeast,1.5
2024/07/12,12:10,3.8,south-southeast,1.5
2024/07/12,12:20,3.5,southeast,2.0
2024/07/12,12:30,3.5,south,0.8
2024/07/12,12:40,3.6,south,1.1
2024/07/12,12:50,3.6,southeast,1.2
2024/07/12,13:00,3.7,-,CALM
2024/07/12,13:10,3.9,southeast,1.2
2024/07/12,13:20,3.6,south,1.5
2024/07/12,13:30,3.6,south,1.5
2024/07/12,13:40,3.8,south-southeast,1.9
2024/07/12,13:50,3.7,south,1.7
2024/07/12,14:00,3.8,south-southeast,1.5
2024/07/12,14:10,3.5,south-southeast,1.7
2024/07/12,14:20,3.7,southeast,1.7
2024/07/12,14:30,3.7,southeast,1.5
2024/07/12,14:40,3.6,south-southeast,2.0
2024/07/12,14:50,3.6,south,2.0
2024/07/12,15:00,3.7,south-southeast,2.2
2024/07/12,15:10,3.6,south-southeast,3.5
2024/07/12,15:20,3.7,south-southeast,3.6
2024/07/12,15:30,3.5,southeast,3.3
2024/07/12,15:40,3.7,south-southeast,3.0
2024/07/12,15:50,3.6,south,3.2
2024/07/12,16:00,3.6,south-southeast,3.0
2024/07/12,16:10,3.7,south-southeast,2.8
2024/07/12,16:20,3.4,south-southeast,2.8
2024/07/12,16:30,3.6,south,3.2
2024/07/12,16:40,3.6,south,3.1
2024/07/12,16:50,3.6,south,3.2
2024/07/12,17:00,3.6,south,3.4
2024/07/12,17:10,3.8,south,2.5
2024/07/12,17:20,3.7,south,2.0
2024/07/12,17:30,3.6,south,2.0
2024/07/12,17:40,3.8,southeast,3.2
2024/07/12,17:50,3.5,south-southeast,2.6
2024/07/12,18:00,3.5,south-southeast,2.3
2024/07/12,18:10,3.6,south-southeast,1.5
2024/07/12,18:20,3.5,south,2.0
2024/07/12,18:30,3.7,south,1.5
2024/07/12,18:40,3.6,south-southwest,1.2
2024/07/12,18:50,3.7,south,1.7
2024/07/12,19:00,3.8,south-southwest,1.4
2024/07/12,19:10,3.5,southwest,0.6
2024/07/12,19:20,3.7,south,0.6
2024/07/12,19:30,3.7,south-southwest,0.8
2024/07/12,19:40,3.7,south-southwest,1.1
2024/07/12,19:50,3.5,west-southwest,0.6
2024/07/12,20:00,3.6,-,CALM
2024/07/12,20:10,3.7,-,CALM
2024/07/12,20:20,3.7,southwest,0.6
2024/07/12,20:30,3.5,-,CALM
2024/07/12,20:40,3.6,west-southwest,0.6
2024/07/12,20:50,3.6,-,CALM
2024/07/12,21:00,3.6,-,CALM
2024/07/12,21:10,3.6,northwest,0.9
2024/07/12,21:20,3.7,northwest,0.9
2024/07/12,21:30,3.6,northwest,1.2
2024/07/12,21:40,3.6,northwest,0.9
2024/07/12,21:50,3.7,northwest,0.9
2024/07/12,22:00,3.6,northwest,0.6
2024/07/12,22:10,3.6,northwest,1.2
2024/07/12,22:20,3.7,north-northwest,1.2
2024/07/12,22:30,3.7,north-northwest,2.0
2024/07/12,22:40,3.7,north-northwest,2.3
2024/07/12,22:50,3.6,north-northwest,2.9
2024/07/12,23:00,3.6,north-northwest,2.9
2024/07/12,23:10,3.6,north-northwest,2.6
2024/07/12,23:20,3.7,north-northwest,3.2
2024/07/12,23:30,3.6,north,3.2
2024/07/12,23:40,3.5,north-northwest,3.5
2024/07/12,23:50,3.6,north-northwest,5.1
